TimeEDT,TemperatureF,Dew PointF,Humidity,Sea Level PressureIn,VisibilityMPH,Wind Direction,Wind SpeedMPH,Gust SpeedMPH,PrecipitationIn,Events,Conditions,WindDirDegrees,DateUTC
12:56 AM,64.9,59.0,81,30.24,10.0,Calm,Calm,-,N/A,,Clear,0,2013-06-22 04:56:00
1:56 AM,62.1,59.0,90,30.25,10.0,Calm,Calm,-,N/A,,Clear,0,2013-06-22 05:56:00
2:56 AM,62.1,57.9,86,30.24,10.0,Calm,Calm,-,N/A,,Clear,0,2013-06-22 06:56:00
3:56 AM,62.1,57.0,84,30.23,10.0,Calm,Calm,-,N/A,,Clear,0,2013-06-22 07:56:00
4:56 AM,61.0,57.0,87,30.23,10.0,Calm,Calm,-,N/A,,Clear,0,2013-06-22 08:56:00
5:56 AM,61.0,57.0,87,30.23,10.0,SW,3.5,-,N/A,,Clear,230,2013-06-22 09:56:00
6:56 AM,64.9,57.0,75,30.24,10.0,Calm,Calm,-,N/A,,Clear,0,2013-06-22 10:56:00
7:56 AM,66.9,57.9,73,30.22,10.0,SW,6.9,-,N/A,,Clear,220,2013-06-22 11:56:00
8:56 AM,71.1,60.1,68,30.23,10.0,SW,5.8,-,N/A,,Clear,230,2013-06-22 12:56:00
9:56 AM,73.9,61.0,64,30.23,10.0,SW,6.9,-,N/A,,Clear,220,2013-06-22 13:56:00
10:56 AM,77.0,62.1,60,30.23,10.0,SW,10.4,-,N/A,,Clear,220,2013-06-22 14:56:00
11:56 AM,79.0,64.0,60,30.23,10.0,SW,9.2,-,N/A,,Partly Cloudy,230,2013-06-22 15:56:00
12:56 PM,81.0,63.0,54,30.22,10.0,SW,10.4,18.4,N/A,,Clear,220,2013-06-22 16:56:00
1:56 PM,82.9,61.0,47,30.20,10.0,WSW,9.2,17.3,N/A,,Clear,240,2013-06-22 17:56:00
2:56 PM,82.9,57.9,42,30.19,10.0,SSW,13.8,19.6,N/A,,Clear,210,2013-06-22 18:56:00
3:56 PM,82.9,59.0,44,30.16,10.0,SSW,9.2,19.6,N/A,,Clear,210,2013-06-22 19:56:00
4:56 PM,82.0,60.1,47,30.14,10.0,SSW,9.2,-,N/A,,Clear,210,2013-06-22 20:56:00
5:56 PM,80.1,60.1,50,30.14,10.0,SSW,10.4,-,N/A,,Clear,210,2013-06-22 21:56:00
6:56 PM,78.1,61.0,56,30.14,10.0,SSW,9.2,-,N/A,,Clear,200,2013-06-22 22:56:00
7:56 PM,75.0,61.0,62,30.14,10.0,South,9.2,-,N/A,,Clear,190,2013-06-22 23:56:00
8:56 PM,71.1,61.0,70,30.16,10.0,SSW,6.9,-,N/A,,Clear,210,2013-06-23 00:56:00
9:56 PM,69.1,61.0,75,30.18,10.0,South,6.9,-,N/A,,Clear,190,2013-06-23 01:56:00
10:56 PM,68.0,59.0,73,30.18,10.0,SSW,6.9,-,N/A,,Clear,210,2013-06-23 02:56:00
11:56 PM,68.0,57.0,68,30.18,10.0,SSW,6.9,-,N/A,,Partly Cloudy,210,2013-06-23 03:56:00